COSMOS 2346

导读

COSMOS 2346是独立国家联合体(CIS)发射的一颗人造卫星,于1997年9月23日发射入轨,属于苏联/俄罗斯“宇宙”(Cosmos)系列卫星。该系列从1962年开始命名,涵盖军事、科学等多类卫星,统一命名方式可隐藏卫星真实用途,提升运行安全性。Cosmos系列至今已有数千颗卫星发射,多数卫星完成任务后已退役成为空间碎片。

基本信息
目录编号:
24953
目录名称:
COSMOS 2346
国际标识:
1997-052A
轨道中心:
EARTH
卫星名称:
COSMOS 2346
卫星全名:
--
卫星状态:
在轨 (已飞行10489 天)
发射日期:
1997-09-23 UTC
国别 :
俄罗斯(独联体) (CIS)
星等 :
--
轨道信息
数据来源 国际轨道数据 AOE轨道数据
星历时间 2026-06-12T14:51:07+0800
13小时前
查看轨道信息
2026-06-12T17:00:00+0800
10小时前
查看轨道信息
半长轴 7342.648km 7342.65km
偏心率 0.0039047 0.0039122
轨道倾角 82.922° 82.923°
近地点辐角 339.377° 339.034°
升交点赤经 350.810° 350.742°
平近点角 193.536° 278.230°
近地点 935.84km 935.787km
远地点 993.182km 993.239km
周期 104.361分钟 104.361分钟
每日圈数 13.798241 13.798235
详细信息
使用方式:
暂无
2D轨道图
3D轨道图
轨道高度分析图
轨道倾角分析图
轨道综合分析图
查看轨道综合分析图